User: anonymous
Location: Unspecified
(0.0000°N, 0.0000°E)
Time: 15:43:04
(UTC+02:00)
Language:

Cosmos 1733 Rocket - Orbit

View from above orbital plane
View from above orbital plane
View from above satellite
View from above satellite

Ground track
Ground track

The orbit data is extracted from the following two-line orbital elements,

1 16612U 86018B   14106.13604161  .00000413  00000-0  47173-4 0  8772
2 16612 082.5150 302.5585 0017900 019.1782 120.3013 14.83519394419711
Epoch (UTC): 16 April 2014 03:15:53
Eccentricity: 0.0017900
inclination: 82.5150°
perigee height: 606 km
apogee height: 631 km
right ascension of ascending node: 302.5585°
argument of perigee: 19.1782°
revolutions per day: 14.83519394
mean anomaly at epoch: 120.3013°
orbit number at epoch: 41971

The dashed part of the orbit path shows where the satellite is in the earth's shadow,  

DLR